DECAYED

STARLINK-11462, 62412 (Decayed)

Orbit data source: Space-Track

STARLINK-11462, 62412 was a payload satellite owned by SpaceX/Seattle (US) in LEO that was launched on Mon, 23 Dec 2024 UTC via an FALCON 9 launch vehicle from the Air Force Eastern Test Range (AFETR). Payload-class satellites include a variety of spacecraft equipped with specific instruments for various scientific and technological missions. These include communications satellites like Starlink; space stations such as the ISS; scientific satellites like the Hubble; Earth observation satellites from companies like Planet Labs, Umbra, and HawkEye 360; GPS; miniature CubeSats for education and research; and military/defense satellites.

Not visible in the next 10 days
Identifier
62412, 2024-249D
Orbit
Decayed
Country
Flag of USUS
Related business
Manufacturer
SpaceX/Seattle
Mission
Decayed Commercial Communications
Bus & Motor
STARLINK V2MD, Unknown motor
Mass
960 kg wet, ~910 kg dry
Launch date (UTC)
2024-12-23 (1 year ago)
Launch vehicle
FALCON 9
Launch site
Air Force Eastern Test Range (AFETR)
Object type
Payload
Rocket body
Debris
Shape & HBR
Box + 2 Pan, 18.1 m
Radar Cross Section
36.964 m², Large (>1 m²)

Expand to show TLE details & history
Last TLE update: 3 weeks ago

TLE from 3 weeks ago
0 STARLINK-11462
1 62412U 24249D   26149.13397830  .10547021  89573-5  30232-2 0  9991
2 62412  42.9843  32.6918 0019292 257.4620 102.4109 16.25960581 82241
Epoch: 2026-05-29T03:12Z
TLE epoch observation values (Epoch: 2026-05-29T03:12:55.725Z)
Latitude
-0.00004°
Longitude
97.79085°
Altitude
205.934 km
Speed
7.783 km/s
True Right ascension
02h 10m 46s
True Declination
0° 00' 00"
Sunlit
Object was in daylight at epoch
Visualization orbit readout
Latitude
Unknown
Longitude
Unknown
Altitude
Unknown
Speed
Unknown
Apparent Right ascension
Unknown
Apparent Declination
Unknown
Sunlit
N/A
Visualization observer readout
Local Sidereal Time
07:18:19
Azimuth
Unknown
Elevation
Unknown
Doppler factor
Unknown
Orbital elements
Apogee altitude
218.149 km
Perigee altitude
192.747 km
Semi-major axis
6,583.585 km
Eccentricity
0.00193
Inclination
42.9843°
RAAN
32.6918°
Arg. of periapsis
257.462°
True anomaly
102.62669°
Mean anomaly
102.4109°
Eccentric anomaly
102.51881°
Mean motion
4.06303 °/min
Orbital period
88.6 mins
BSTAR
0.0030232
Loading maneuver chart data...
Computing Atmospheric mass density...
Loading historical data...
Loading historical data...
Loading historical data...
Loading historical data...
Loading historical data...
Loading historical data...
Loading historical data...

Documentation

Showing up to 5 results
|